TimeEDT,TemperatureF,Dew PointF,Humidity,Sea Level PressureIn,VisibilityMPH,Wind Direction,Wind SpeedMPH,Gust SpeedMPH,PrecipitationIn,Events,Conditions,WindDirDegrees,DateUTC
12:08 AM,60.8,59.0,94,30.10,1.2,Calm,Calm,-,N/A,,Clear,0,2012-09-15 04:08:00
12:18 AM,57.2,57.2,100,30.10,0.8,Calm,Calm,-,N/A,,Clear,0,2012-09-15 04:18:00
12:34 AM,60.8,59.0,94,30.09,0.2,Calm,Calm,-,N/A,Fog,Fog,0,2012-09-15 04:34:00
12:53 AM,59.0,57.9,96,30.09,0.2,Calm,Calm,-,N/A,Fog,Fog,0,2012-09-15 04:53:00
1:21 AM,59.0,57.2,94,30.08,1.0,Calm,Calm,-,N/A,,Scattered Clouds,0,2012-09-15 05:21:00
1:25 AM,60.8,59.0,94,30.08,2.0,Calm,Calm,-,N/A,,Mostly Cloudy,0,2012-09-15 05:25:00
1:31 AM,57.2,57.2,100,30.08,5.0,Calm,Calm,-,N/A,,Scattered Clouds,0,2012-09-15 05:31:00
1:39 AM,57.2,57.2,100,30.08,3.0,Calm,Calm,-,N/A,,Mostly Cloudy,0,2012-09-15 05:39:00
1:41 AM,57.2,57.2,100,30.08,1.8,Calm,Calm,-,N/A,,Mostly Cloudy,0,2012-09-15 05:41:00
1:50 AM,57.2,57.2,100,30.08,2.0,Calm,Calm,-,N/A,,Scattered Clouds,0,2012-09-15 05:50:00
1:53 AM,57.9,57.0,97,30.07,2.0,Calm,Calm,-,N/A,,Scattered Clouds,0,2012-09-15 05:53:00
1:56 AM,57.2,57.2,100,30.07,1.0,Calm,Calm,-,N/A,,Mist,0,2012-09-15 05:56:00
2:10 AM,57.2,57.2,100,30.07,0.2,Calm,Calm,-,N/A,Fog,Fog,0,2012-09-15 06:10:00
2:27 AM,57.2,57.2,100,30.06,0.2,Calm,Calm,-,N/A,Fog,Fog,0,2012-09-15 06:27:00
2:53 AM,57.9,57.9,100,30.05,0.2,Calm,Calm,-,N/A,Fog,Fog,0,2012-09-15 06:53:00
3:04 AM,57.2,57.2,100,30.05,0.2,Calm,Calm,-,N/A,Fog,Fog,0,2012-09-15 07:04:00
3:21 AM,57.2,55.4,94,30.04,0.2,Calm,Calm,-,N/A,Fog,Fog,0,2012-09-15 07:21:00
3:30 AM,57.2,57.2,100,30.04,1.0,Calm,Calm,-,N/A,,Mist,0,2012-09-15 07:30:00
3:32 AM,57.2,57.2,100,30.04,2.0,Calm,Calm,-,N/A,,Scattered Clouds,0,2012-09-15 07:32:00
3:39 AM,59.0,57.2,94,30.04,10.0,Calm,Calm,-,N/A,,Mostly Cloudy,0,2012-09-15 07:39:00
3:45 AM,59.0,57.2,94,30.04,1.2,Calm,Calm,-,N/A,,Mostly Cloudy,0,2012-09-15 07:45:00
3:49 AM,59.0,57.2,94,30.03,0.2,Calm,Calm,-,N/A,Fog,Fog,0,2012-09-15 07:49:00
3:53 AM,59.0,57.2,94,30.03,0.2,Calm,Calm,-,N/A,Fog,Fog,0,2012-09-15 07:53:00
4:22 AM,57.2,57.2,100,30.03,0.2,Calm,Calm,-,N/A,Fog,Fog,0,2012-09-15 08:22:00
4:40 AM,57.2,55.4,94,30.03,0.5,Calm,Calm,-,0.01,Fog,Fog,0,2012-09-15 08:40:00
4:48 AM,55.4,55.4,100,30.03,0.5,Calm,Calm,-,0.01,Fog,Fog,0,2012-09-15 08:48:00
4:53 AM,57.0,55.9,96,30.03,0.2,Calm,Calm,-,0.01,Fog,Fog,0,2012-09-15 08:53:00
5:02 AM,57.2,55.4,94,30.03,0.8,Calm,Calm,-,N/A,,Mist,0,2012-09-15 09:02:00
5:05 AM,55.4,55.4,100,30.03,2.0,Calm,Calm,-,N/A,,Mostly Cloudy,0,2012-09-15 09:05:00
5:13 AM,55.4,55.4,100,30.03,8.0,Calm,Calm,-,N/A,,Mostly Cloudy,0,2012-09-15 09:13:00
5:27 AM,55.4,55.4,100,30.03,2.5,Calm,Calm,-,N/A,,Scattered Clouds,0,2012-09-15 09:27:00
5:38 AM,55.4,53.6,94,30.03,7.0,Calm,Calm,-,N/A,,Partly Cloudy,0,2012-09-15 09:38:00
5:46 AM,57.2,55.4,94,30.04,10.0,Calm,Calm,-,N/A,,Clear,0,2012-09-15 09:46:00
5:53 AM,55.9,55.0,97,30.04,5.0,Calm,Calm,-,N/A,,Scattered Clouds,0,2012-09-15 09:53:00
6:08 AM,55.4,55.4,100,30.03,10.0,Calm,Calm,-,N/A,,Mostly Cloudy,0,2012-09-15 10:08:00
6:14 AM,57.2,55.4,94,30.03,2.0,Calm,Calm,-,N/A,,Mostly Cloudy,0,2012-09-15 10:14:00
6:17 AM,57.2,55.4,94,30.03,0.8,Calm,Calm,-,N/A,,Mostly Cloudy,0,2012-09-15 10:17:00
6:21 AM,57.2,57.2,100,30.03,1.0,Calm,Calm,-,N/A,,Mist,0,2012-09-15 10:21:00
6:26 AM,57.2,55.4,94,30.03,6.0,Calm,Calm,-,N/A,,Partly Cloudy,0,2012-09-15 10:26:00
6:53 AM,59.0,57.9,96,30.02,8.0,Calm,Calm,-,N/A,,Clear,0,2012-09-15 10:53:00
7:53 AM,64.9,63.0,93,30.02,10.0,Calm,Calm,-,N/A,,Scattered Clouds,0,2012-09-15 11:53:00
8:53 AM,66.9,64.0,90,30.03,10.0,WSW,3.5,-,N/A,,Overcast,240,2012-09-15 12:53:00
9:36 AM,66.2,62.6,88,30.04,10.0,Variable,5.8,-,N/A,,Overcast,0,2012-09-15 13:36:00
9:53 AM,66.0,61.0,84,30.04,10.0,WNW,9.2,-,N/A,,Overcast,300,2012-09-15 13:53:00
10:53 AM,64.0,57.9,80,30.04,9.0,WNW,9.2,-,0.00,Rain,Light Rain,290,2012-09-15 14:53:00
11:53 AM,66.0,55.0,68,30.01,10.0,Variable,3.5,-,0.01,,Overcast,0,2012-09-15 15:53:00
12:53 PM,70.0,52.0,53,30.00,10.0,NW,9.2,-,N/A,,Clear,320,2012-09-15 16:53:00
1:53 PM,72.0,52.0,49,29.98,10.0,WNW,12.7,-,N/A,,Clear,290,2012-09-15 17:53:00
2:53 PM,73.9,52.0,46,29.97,10.0,NNW,8.1,-,N/A,,Clear,330,2012-09-15 18:53:00
3:53 PM,73.0,51.1,46,29.97,10.0,NW,6.9,18.4,N/A,,Scattered Clouds,310,2012-09-15 19:53:00
4:53 PM,72.0,48.9,44,29.98,10.0,Variable,5.8,-,N/A,,Clear,0,2012-09-15 20:53:00
5:53 PM,70.0,48.9,47,29.99,10.0,Variable,4.6,-,N/A,,Clear,0,2012-09-15 21:53:00
6:53 PM,64.9,50.0,58,30.01,10.0,Calm,Calm,-,N/A,,Clear,0,2012-09-15 22:53:00
7:53 PM,59.0,51.1,75,30.02,10.0,Calm,Calm,-,N/A,,Partly Cloudy,0,2012-09-15 23:53:00
8:53 PM,60.1,48.9,67,30.04,10.0,WNW,4.6,-,N/A,,Mostly Cloudy,300,2012-09-16 00:53:00
9:53 PM,59.0,48.9,69,30.04,10.0,Calm,Calm,-,N/A,,Clear,0,2012-09-16 01:53:00
10:53 PM,55.0,48.0,77,30.05,10.0,NNW,3.5,-,N/A,,Clear,340,2012-09-16 02:53:00
11:53 PM,51.1,48.0,89,30.05,10.0,Calm,Calm,-,N/A,,Clear,0,2012-09-16 03:53:00